Погода в Шулке

Россия / Республика Марий Эл     56°56′26″N   48°09′50″E
темп.,
°C
ветер,
м/с
пор.,
м/с
влажн.,
%
обл.,
%
осадки,
мм/ч
давл.,
гПа
погр.,
м
22 апреля, чт
чт2200:00+2ююв71494100 0.0 1018659
03:00+3ю81495100 0.4 1019597
06:00+3ю71394100 0.1 1019520
09:00+6ююз61186100 0.1 1020655
12:00+9ю7106996 0.0 1021889
15:00+11ю796596 0.0 10201317
18:00+8ююз348795 1.7 1021191
21:00+6ююв229214 2.0 102221
23 апреля, пт
пт2300:00+4ююз22945 0.0 102219
03:00+3ю23935 0.0 102426
06:00+5ю24915 0.0 1024109
09:00+10ю34685 0.0 1024567
12:00+13ю335215 0.0 10241517
15:00+14ююв334519 0.0 10221797
18:00+13юв345856 0.0 102281
21:00+9юв4871100 0.0 1022152
24 апреля, сб
сб2400:00+8юв498099 0.0 1020245
03:00+6вюв498661 0.1 1019150
06:00+7вюв51184100 0.0 1018403
09:00+8вюв7979100 0.0 1016632
12:00+8вюв7978100 0.1 10151077
15:00+7вюв5690100 0.8 10131004
18:00+6вюв5793100 0.6 1011851
21:00+6вюв51095100 0.7 1009450
25 апреля, вс
вс2500:00+5юв599272 0.1 1007462
03:00+5вюв5993100 0.1 1005488
06:00+4ююв4696100 4.9 1003743
09:00+2з81596100 7.0 1004745
12:00+8з91565100 0.4 10061821
15:00+9з9145069 0.6 10072358
18:00+7зюз712566 0.2 1009632
21:00+4юз512725 0.2 1011249
26 апреля, пн
пн2600:00+2юз411825 0.0 1012201
03:00+1юз49875 0.0 1012183
06:00+2юз5108719 0.1 1013337
09:00+6зюз79635 0.1 10141091
12:00+9зюз7943100 0.2 10142448
15:00+10зюз7104091 0.2 10142561
18:00+8зюз365854 0.0 1013183
21:00+4ююз357219 0.0 101369